| time (UTC) | temp F | wind direction | speed MPH | gust MPH | rain 1hr in | rain 24hr in | rain mn in | humidity % | barometer mb |
| 20260901071808 | 69 | 0 | 0.0 | 0.0 | 0.00 | 0.01 | 0.01 | 50 | 1014.0 |
| 20260901071113 | 69 | 0 | 0.0 | 0.0 | 0.00 | 0.01 | 0.01 | 50 | 1014.0 |
| 20260901070004 | 69 | 0 | 0.0 | 0.0 | 0.00 | 0.01 | 0.01 | 49 | 1013.8 |
| 20260901065403 | 69 | 0 | 0.0 | 0.0 | 0.00 | 0.01 | 0.01 | 49 | 1013.7 |
| 20260901064503 | 69 | 0 | 0.0 | 0.0 | 0.00 | 0.01 | 0.01 | 49 | 1013.5 |
| 20260901063603 | 69 | 0 | 0.0 | 0.0 | 0.00 | 0.01 | 0.01 | 48 | 1013.5 |
| 20260901062915 | 69 | 0 | 0.0 | 0.0 | 0.00 | 0.01 | 0.01 | 48 | 1013.4 |
| 20260901062014 | 69 | 0 | 0.0 | 0.0 | 0.00 | 0.01 | 0.01 | 47 | 1013.5 |
| 20260901060908 | 70 | 0 | 0.0 | 0.0 | 0.00 | 0.01 | 0.01 | 47 | 1013.5 |
| 20260901060003 | 70 | 0 | 0.0 | 0.0 | 0.00 | 0.01 | 0.01 | 47 | 1013.3 |
| 20260901055408 | 70 | 0 | 0.0 | 0.0 | 0.00 | 0.01 | 0.01 | 47 | 1013.2 |
| 20260901054504 | 70 | 0 | 0.0 | 0.0 | 0.00 | 0.01 | 0.01 | 46 | 1013.3 |
| 20260901053613 | 70 | 0 | 0.0 | 0.0 | 0.00 | 0.01 | 0.01 | 45 | 1013.3 |
| 20260901052708 | 71 | 0 | 0.0 | 0.0 | 0.00 | 0.01 | 0.01 | 44 | 1013.3 |
| 20260901051808 | 71 | 0 | 0.0 | 0.0 | 0.00 | 0.01 | 0.01 | 44 | 1013.6 |
| 20260901050903 | 72 | 0 | 0.0 | 0.0 | 0.00 | 0.01 | 0.01 | 43 | 1013.5 |
| 20260901050003 | 73 | 0 | 0.0 | 0.0 | 0.00 | 0.01 | 0.01 | 42 | 1013.5 |
| 20260901045405 | 73 | 0 | 0.0 | 0.0 | 0.00 | 0.01 | 0.01 | 42 | 1013.7 |
| 20260901044506 | 73 | 0 | 0.0 | 0.0 | 0.00 | 0.01 | 0.01 | 42 | 1013.9 |
| 20260901043814 | 73 | 0 | 0.0 | 0.0 | 0.00 | 0.01 | 0.01 | 41 | 1014.1 |
| 20260901042705 | 74 | 0 | 0.0 | 0.0 | 0.00 | 0.01 | 0.01 | 45 | 1014.2 |
| 20260901042013 | 73 | 0 | 0.0 | 0.0 | 0.00 | 0.01 | 0.01 | 44 | 1014.5 |
| 20260901040904 | 73 | 0 | 0.0 | 0.0 | 0.00 | 0.01 | 0.01 | 43 | 1014.7 |
| 20260901040008 | 73 | 0 | 0.0 | 0.0 | 0.00 | 0.01 | 0.01 | 43 | 1014.7 |
| 20260901035408 | 73 | 0 | 0.0 | 0.0 | 0.00 | 0.01 | 0.01 | 43 | 1015.0 |
| 20260901034504 | 72 | 0 | 0.0 | 0.0 | 0.00 | 0.01 | 0.01 | 44 | 1014.7 |
| 20260901033603 | 72 | 0 | 0.0 | 0.0 | 0.00 | 0.01 | 0.01 | 44 | 1014.9 |
| 20260901032703 | 72 | 0 | 0.0 | 0.0 | 0.00 | 0.01 | 0.01 | 44 | 1015.1 |
| 20260901031803 | 72 | 0 | 0.0 | 0.0 | 0.00 | 0.01 | 0.01 | 44 | 1015.2 |
| 20260901030903 | 72 | 0 | 0.0 | 0.0 | 0.00 | 0.01 | 0.01 | 47 | 1015.2 |
| 20260901030008 | 72 | 0 | 0.0 | 0.0 | 0.00 | 0.01 | 0.01 | 47 | 1015.4 |
| 20260901025403 | 72 | 0 | 0.0 | 0.0 | 0.00 | 0.01 | 0.01 | 48 | 1015.6 |
| 20260901024508 | 72 | 0 | 0.0 | 0.0 | 0.00 | 0.01 | 0.01 | 48 | 1015.8 |
| 20260901023603 | 72 | 0 | 0.0 | 0.0 | 0.00 | 0.01 | 0.01 | 48 | 1016.3 |
| 20260901022703 | 71 | 0 | 0.0 | 0.0 | 0.00 | 0.01 | 0.01 | 48 | 1016.7 |
| 20260901021803 | 71 | 0 | 0.0 | 0.0 | 0.00 | 0.01 | 0.01 | 48 | 1016.9 |
| 20260901020908 | 70 | 0 | 0.0 | 0.0 | 0.00 | 0.01 | 0.01 | 48 | 1017.0 |
| 20260901020004 | 70 | 0 | 0.0 | 0.0 | 0.00 | 0.01 | 0.01 | 48 | 1017.3 |
| 20260901015408 | 70 | 0 | 0.0 | 0.0 | 0.00 | 0.01 | 0.01 | 49 | 1017.1 |
| 20260901014714 | 70 | 0 | 0.0 | 0.0 | 0.00 | 0.01 | 0.01 | 51 | 1017.1 |
| 20260901013605 | 70 | 0 | 0.0 | 0.0 | 0.00 | 0.01 | 0.01 | 50 | 1017.4 |
| 20260901012919 | 70 | 0 | 0.0 | 0.0 | 0.00 | 0.01 | 0.01 | 50 | 1017.6 |
| 20260901011809 | 69 | 0 | 0.0 | 0.0 | 0.00 | 0.01 | 0.01 | 51 | 1017.8 |
| 20260901010908 | 69 | 0 | 0.0 | 0.0 | 0.00 | 0.01 | 0.01 | 51 | 1017.8 |
| 20260901010004 | 69 | 0 | 0.0 | 0.0 | 0.00 | 0.01 | 0.01 | 52 | 1018.0 |
| 20260901005408 | 68 | 0 | 0.0 | 0.0 | 0.00 | 0.01 | 0.01 | 55 | 1018.1 |
| 20260901004503 | 68 | 0 | 0.0 | 0.0 | 0.00 | 0.01 | 0.01 | 54 | 1018.2 |
| 20260901003608 | 68 | 0 | 0.0 | 0.0 | 0.00 | 0.01 | 0.01 | 55 | 1018.5 |
| 20260901002704 | 68 | 0 | 0.0 | 0.0 | 0.00 | 0.01 | 0.01 | 56 | 1018.6 |
| 20260901001803 | 67 | 0 | 0.0 | 0.0 | 0.00 | 0.01 | 0.01 | 56 | 1018.8 |
| 20260901000905 | 66 | 0 | 0.0 | 0.0 | 0.00 | 0.01 | 0.01 | 62 | 1018.8 |
| 20260901000226 | 66 | 0 | 0.0 | 0.0 | 0.00 | 0.01 | 0.01 | 61 | 1019.0 |
| 20260831235404 | 65 | 0 | 0.0 | 0.0 | 0.00 | 0.01 | 0.01 | 63 | 1019.2 |
| 20260831234719 | 65 | 0 | 0.0 | 0.0 | 0.00 | 0.01 | 0.01 | 63 | 1019.7 |
| 20260831233604 | 64 | 0 | 0.0 | 0.0 | 0.00 | 0.01 | 0.01 | 66 | 1020.0 |
| 20260831232709 | 64 | 0 | 0.0 | 0.0 | 0.00 | 0.01 | 0.01 | 66 | 1020.2 |
| 20260831231803 | 63 | 0 | 0.0 | 0.0 | 0.00 | 0.01 | 0.01 | 69 | 1020.6 |
| 20260831231114 | 62 | 0 | 0.0 | 0.0 | 0.00 | 0.01 | 0.01 | 71 | 1020.7 |
| 20260831230013 | 61 | 0 | 0.0 | 0.0 | 0.00 | 0.01 | 0.01 | 72 | 1020.8 |
| 20260831225403 | 60 | 0 | 0.0 | 0.0 | 0.00 | 0.01 | 0.01 | 73 | 1021.0 |
| 20260831224504 | 60 | 0 | 0.0 | 0.0 | 0.00 | 0.01 | 0.01 | 75 | 1021.1 |
| 20260831223605 | 59 | 0 | 0.0 | 0.0 | 0.00 | 0.01 | 0.01 | 78 | 1021.2 |
| 20260831222704 | 58 | 0 | 0.0 | 0.0 | 0.00 | 0.01 | 0.01 | 79 | 1021.0 |
| 20260831221803 | 57 | 0 | 0.0 | 0.0 | 0.00 | 0.01 | 0.01 | 81 | 1021.2 |
| 20260831220905 | 56 | 0 | 0.0 | 0.0 | 0.00 | 0.01 | 0.01 | 83 | 1021.1 |
| 20260831220008 | 56 | 0 | 0.0 | 0.0 | 0.01 | 0.01 | 0.01 | 85 | 1021.1 |
| 20260831215410 | 55 | 0 | 0.0 | 0.0 | 0.01 | 0.01 | 0.01 | 87 | 1021.2 |
| 20260831214504 | 54 | 0 | 0.0 | 0.0 | 0.01 | 0.01 | 0.01 | 89 | 1021.2 |
| 20260831213605 | 53 | 0 | 0.0 | 0.0 | 0.01 | 0.01 | 0.01 | 90 | 1021.1 |
| 20260831212705 | 52 | 0 | 0.0 | 0.0 | 0.01 | 0.01 | 0.01 | 91 | 1021.0 |
| 20260831211805 | 51 | 0 | 0.0 | 0.0 | 0.01 | 0.01 | 0.01 | 90 | 1020.9 |
| 20260831210904 | 50 | 0 | 0.0 | 0.0 | 0.01 | 0.01 | 0.01 | 90 | 1020.9 |
| 20260831210008 | 50 | 0 | 0.0 | 0.0 | 0.00 | 0.00 | 0.00 | 90 | 1021.0 |
| 20260831205405 | 50 | 0 | 0.0 | 0.0 | 0.00 | 0.00 | 0.00 | 90 | 1020.9 |
| 20260831204503 | 50 | 0 | 0.0 | 0.0 | 0.00 | 0.00 | 0.00 | 90 | 1020.9 |
| 20260831203603 | 50 | 0 | 0.0 | 0.0 | 0.00 | 0.00 | 0.00 | 89 | 1021.0 |
| 20260831202703 | 50 | 0 | 0.0 | 0.0 | 0.00 | 0.00 | 0.00 | 89 | 1021.2 |
| 20260831201803 | 50 | 0 | 0.0 | 0.0 | 0.00 | 0.00 | 0.00 | 89 | 1021.3 |
| 20260831200905 | 50 | 0 | 0.0 | 0.0 | 0.00 | 0.00 | 0.00 | 88 | 1021.0 |
| 20260831200003 | 51 | 0 | 0.0 | 0.0 | 0.00 | 0.00 | 0.00 | 89 | 1021.1 |
| 20260831195403 | 50 | 0 | 0.0 | 0.0 | 0.00 | 0.00 | 0.00 | 89 | 1021.2 |
| 20260831194504 | 50 | 0 | 0.0 | 0.0 | 0.00 | 0.00 | 0.00 | 89 | 1021.2 |
| 20260831193605 | 50 | 0 | 0.0 | 0.0 | 0.00 | 0.00 | 0.00 | 89 | 1021.2 |
| 20260831192705 | 50 | 0 | 0.0 | 0.0 | 0.00 | 0.00 | 0.00 | 88 | 1021.2 |
| 20260831191805 | 50 | 0 | 0.0 | 0.0 | 0.00 | 0.00 | 0.00 | 88 | 1021.2 |
| 20260831190905 | 50 | 0 | 0.0 | 0.0 | 0.00 | 0.00 | 0.00 | 88 | 1021.3 |
| 20260831190004 | 50 | 0 | 0.0 | 0.0 | 0.00 | 0.00 | 0.00 | 88 | 1021.4 |
| 20260831185405 | 51 | 0 | 0.0 | 0.0 | 0.00 | 0.00 | 0.00 | 88 | 1021.6 |
| 20260831184715 | 51 | 0 | 0.0 | 0.0 | 0.00 | 0.00 | 0.00 | 88 | 1021.5 |
| 20260831183603 | 51 | 0 | 0.0 | 0.0 | 0.00 | 0.00 | 0.00 | 88 | 1021.7 |
| 20260831182705 | 51 | 0 | 0.0 | 0.0 | 0.00 | 0.00 | 0.00 | 89 | 1021.8 |
| 20260831181805 | 51 | 0 | 0.0 | 0.0 | 0.00 | 0.00 | 0.00 | 89 | 1021.9 |
| 20260831180905 | 51 | 0 | 0.0 | 0.0 | 0.00 | 0.00 | 0.00 | 89 | 1022.1 |
| 20260831180214 | 51 | 0 | 0.0 | 0.0 | 0.00 | 0.00 | 0.00 | 89 | 1022.1 |
| 20260831175405 | 51 | 0 | 0.0 | 0.0 | 0.00 | 0.00 | 0.00 | 89 | 1022.1 |
| 20260831174503 | 51 | 0 | 0.0 | 0.0 | 0.00 | 0.00 | 0.00 | 88 | 1022.2 |
| 20260831173603 | 51 | 0 | 0.0 | 0.0 | 0.00 | 0.00 | 0.00 | 88 | 1022.1 |
| 20260831172703 | 51 | 0 | 0.0 | 0.0 | 0.00 | 0.00 | 0.00 | 88 | 1022.3 |
| 20260831172013 | 51 | 0 | 0.0 | 0.0 | 0.00 | 0.00 | 0.00 | 88 | 1022.5 |
| 20260831170905 | 51 | 0 | 0.0 | 0.0 | 0.00 | 0.00 | 0.00 | 88 | 1022.5 |
| 20260831170004 | 51 | 0 | 0.0 | 0.0 | 0.00 | 0.00 | 0.00 | 88 | 1022.5 |
| 20260831165403 | 51 | 0 | 0.0 | 0.0 | 0.00 | 0.00 | 0.00 | 88 | 1022.6 |
| 20260831164505 | 50 | 0 | 0.0 | 0.0 | 0.00 | 0.00 | 0.00 | 88 | 1022.8 |
| 20260831163814 | 50 | 0 | 0.0 | 0.0 | 0.00 | 0.00 | 0.00 | 88 | 1022.9 |
| 20260831162703 | 50 | 0 | 0.0 | 0.0 | 0.00 | 0.00 | 0.00 | 88 | 1023.1 |
| 20260831161803 | 50 | 0 | 0.0 | 0.0 | 0.00 | 0.00 | 0.00 | 87 | 1023.3 |
| 20260831160903 | 50 | 0 | 0.0 | 0.0 | 0.00 | 0.00 | 0.00 | 87 | 1023.4 |
| 20260831160005 | 50 | 0 | 0.0 | 0.0 | 0.00 | 0.00 | 0.00 | 86 | 1023.5 |
| 20260831155403 | 50 | 0 | 0.0 | 0.0 | 0.00 | 0.00 | 0.00 | 86 | 1023.6 |
| 20260831154503 | 50 | 0 | 0.0 | 0.0 | 0.00 | 0.00 | 0.00 | 86 | 1023.7 |
| 20260831153603 | 50 | 0 | 0.0 | 0.0 | 0.00 | 0.00 | 0.00 | 86 | 1023.8 |
| 20260831152703 | 50 | 0 | 0.0 | 0.0 | 0.00 | 0.00 | 0.00 | 86 | 1023.8 |
| 20260831151805 | 50 | 0 | 0.0 | 0.0 | 0.00 | 0.00 | 0.00 | 86 | 1023.9 |
| 20260831151113 | 50 | 0 | 0.0 | 0.0 | 0.00 | 0.00 | 0.00 | 86 | 1023.9 |
| 20260831150005 | 50 | 0 | 0.0 | 0.0 | 0.00 | 0.00 | 0.00 | 86 | 1024.0 |
| 20260831145403 | 50 | 0 | 0.0 | 0.0 | 0.00 | 0.00 | 0.00 | 86 | 1024.1 |
| 20260831144503 | 50 | 0 | 0.0 | 0.0 | 0.00 | 0.00 | 0.00 | 86 | 1024.3 |
| 20260831143815 | 50 | 0 | 0.0 | 0.0 | 0.00 | 0.00 | 0.00 | 86 | 1024.3 |
| 20260831142915 | 50 | 0 | 0.0 | 0.0 | 0.00 | 0.00 | 0.00 | 86 | 1024.5 |
| 20260831141803 | 50 | 0 | 0.0 | 0.0 | 0.00 | 0.00 | 0.00 | 85 | 1024.7 |
| 20260831141115 | 50 | 0 | 0.0 | 0.0 | 0.00 | 0.00 | 0.00 | 85 | 1024.8 |
| 20260831140003 | 50 | 0 | 0.0 | 0.0 | 0.00 | 0.00 | 0.00 | 85 | 1025.0 |
| 20260831135614 | 50 | 0 | 0.0 | 0.0 | 0.00 | 0.00 | 0.00 | 85 | 1025.0 |
| 20260831134503 | 50 | 0 | 0.0 | 0.0 | 0.00 | 0.00 | 0.00 | 85 | 1025.2 |
| 20260831133604 | 51 | 0 | 0.0 | 0.0 | 0.00 | 0.00 | 0.00 | 85 | 1025.3 |
| 20260831132705 | 51 | 0 | 0.0 | 0.0 | 0.00 | 0.00 | 0.00 | 85 | 1025.5 |
| 20260831131803 | 51 | 0 | 0.0 | 0.0 | 0.00 | 0.00 | 0.00 | 84 | 1025.7 |
| 20260831130910 | 52 | 0 | 0.0 | 0.0 | 0.00 | 0.00 | 0.00 | 84 | 1025.8 |
| 20260831130008 | 52 | 0 | 0.0 | 0.0 | 0.00 | 0.00 | 0.00 | 84 | 1026.0 |
| 20260831125408 | 52 | 0 | 0.0 | 0.0 | 0.00 | 0.00 | 0.00 | 83 | 1026.0 |
| 20260831124505 | 52 | 0 | 0.0 | 0.0 | 0.00 | 0.00 | 0.00 | 83 | 1026.0 |
| 20260831123610 | 52 | 0 | 0.0 | 0.0 | 0.00 | 0.00 | 0.00 | 83 | 1026.1 |
| 20260831122708 | 53 | 0 | 0.0 | 0.0 | 0.00 | 0.00 | 0.00 | 83 | 1026.1 |
| 20260831121808 | 53 | 0 | 0.0 | 0.0 | 0.00 | 0.00 | 0.00 | 82 | 1026.2 |
| 20260831120903 | 53 | 0 | 0.0 | 0.0 | 0.00 | 0.00 | 0.00 | 82 | 1026.2 |
| 20260831120003 | 54 | 0 | 0.0 | 0.0 | 0.00 | 0.00 | 0.00 | 81 | 1026.2 |
| 20260831115408 | 54 | 0 | 0.0 | 0.0 | 0.00 | 0.00 | 0.00 | 81 | 1026.3 |
| 20260831114503 | 54 | 0 | 0.0 | 0.0 | 0.00 | 0.00 | 0.00 | 81 | 1026.4 |
| 20260831113604 | 54 | 0 | 0.0 | 0.0 | 0.00 | 0.00 | 0.00 | 81 | 1026.3 |
| 20260831112703 | 55 | 0 | 0.0 | 0.0 | 0.00 | 0.00 | 0.00 | 80 | 1026.4 |
| 20260831112013 | 55 | 0 | 0.0 | 0.0 | 0.00 | 0.00 | 0.00 | 79 | 1026.4 |
| 20260831110903 | 56 | 0 | 0.0 | 0.0 | 0.00 | 0.00 | 0.00 | 79 | 1026.4 |
| 20260831110008 | 56 | 0 | 0.0 | 0.0 | 0.00 | 0.00 | 0.00 | 77 | 1026.5 |
| 20260831105403 | 56 | 0 | 0.0 | 0.0 | 0.00 | 0.00 | 0.00 | 77 | 1026.5 |
| 20260831104503 | 57 | 0 | 0.0 | 0.0 | 0.00 | 0.00 | 0.00 | 77 | 1026.5 |
| 20260831103604 | 57 | 0 | 0.0 | 0.0 | 0.00 | 0.00 | 0.00 | 76 | 1026.5 |
| 20260831102708 | 58 | 0 | 0.0 | 0.0 | 0.00 | 0.00 | 0.00 | 74 | 1026.5 |
| 20260831101808 | 58 | 0 | 0.0 | 0.0 | 0.00 | 0.00 | 0.00 | 72 | 1026.5 |
| 20260831100904 | 59 | 0 | 0.0 | 0.0 | 0.00 | 0.00 | 0.00 | 72 | 1026.6 |
| 20260831100008 | 59 | 0 | 0.0 | 0.0 | 0.00 | 0.00 | 0.00 | 72 | 1026.5 |
| 20260831095403 | 59 | 0 | 0.0 | 0.0 | 0.00 | 0.00 | 0.00 | 72 | 1026.7 |
| 20260831094518 | 60 | 0 | 0.0 | 0.0 | 0.00 | 0.00 | 0.00 | 71 | 1026.7 |
| 20260831093814 | 60 | 0 | 0.0 | 0.0 | 0.00 | 0.00 | 0.00 | 71 | 1026.8 |
| 20260831092703 | 61 | 0 | 0.0 | 0.0 | 0.00 | 0.00 | 0.00 | 69 | 1026.8 |
| 20260831091803 | 61 | 0 | 0.0 | 0.0 | 0.00 | 0.00 | 0.00 | 68 | 1026.8 |
| 20260831091113 | 62 | 0 | 0.0 | 0.0 | 0.00 | 0.00 | 0.00 | 68 | 1026.9 |
| 20260831090219 | 62 | 0 | 0.0 | 0.0 | 0.00 | 0.00 | 0.00 | 68 | 1026.9 |
| 20260831085403 | 62 | 0 | 0.0 | 0.0 | 0.00 | 0.00 | 0.00 | 67 | 1026.8 |
| 20260831084508 | 63 | 0 | 0.0 | 0.0 | 0.00 | 0.00 | 0.00 | 66 | 1026.8 |
| 20260831083603 | 64 | 0 | 0.0 | 0.0 | 0.00 | 0.00 | 0.00 | 65 | 1026.9 |
| 20260831082918 | 64 | 0 | 0.0 | 0.0 | 0.00 | 0.00 | 0.00 | 64 | 1026.9 |
| 20260831082013 | 65 | 0 | 0.0 | 0.0 | 0.00 | 0.00 | 0.00 | 63 | 1026.9 |
| 20260831080903 | 66 | 0 | 0.0 | 0.0 | 0.00 | 0.00 | 0.00 | 62 | 1026.8 |
| 20260831080218 | 66 | 0 | 0.0 | 0.0 | 0.00 | 0.00 | 0.00 | 61 | 1026.8 |
| 20260831075614 | 67 | 0 | 0.0 | 0.0 | 0.00 | 0.00 | 0.00 | 60 | 1026.9 |
| 20260831074503 | 68 | 0 | 0.0 | 0.0 | 0.00 | 0.00 | 0.00 | 59 | 1026.8 |
| 20260831073608 | 68 | 0 | 0.0 | 0.0 | 0.00 | 0.00 | 0.00 | 58 | 1026.9 |
| 20260831072703 | 69 | 0 | 0.0 | 0.0 | 0.00 | 0.00 | 0.00 | 57 | 1026.8 |